{"data":{"norad_id":68506,"intl_designator":"2026-067CU","name":"AEPEX","alt_names":[],"object_type":"PAYLOAD","status":"ACTIVE","operator":null,"country":"US","launch_date":"2026-03-30","launch_site_code":"AFWTR","launch_vehicle":null,"mission":null,"orbit_class":"UNKNOWN","rcs_meters":null,"size_class":null,"mass_kg":null,"dimensions":null,"purposes":[],"wikipedia_slug":null,"has_3d_model":false,"image_url":null,"decayed_at":null,"tle_current":{"epoch":"2026-09-20T03:27:21.790944Z","epoch_age_seconds":97257,"freshness":"FRESH","line1":"1 68506U 26067CU  26263.14400221  .00004697  00000+0  21958-3 0  9992","line2":"2 68506  97.4611 220.4571 0004851 103.4236 256.7540 15.20257964 26247","mean_motion":15.20257964,"eccentricity":0.0004851,"inclination_deg":97.4611,"raan_deg":220.4571,"arg_perigee_deg":103.4236,"mean_anomaly_deg":256.754,"bstar":0.00021958,"rev_number":2624,"period_min":94.720766744821,"perigee_km":501.72281639388,"apogee_km":508.40089592413,"semimajor_km":6883.198856159,"source":"CELESTRAK","updated_at":"2026-09-20T09:00:24.263526Z"}}}